TimeEST,TemperatureF,Dew PointF,Humidity,Sea Level PressureIn,VisibilityMPH,Wind Direction,Wind SpeedMPH,Gust SpeedMPH,PrecipitationIn,Events,Conditions,WindDirDegrees,DateUTC
12:15 AM,21.2,12.2,68,30.17,10.0,WSW,4.6,-,N/A,,Clear,240,2013-02-17 05:15:00
12:36 AM,21.2,12.2,68,30.18,10.0,WNW,4.6,-,N/A,,Clear,290,2013-02-17 05:36:00
12:55 AM,19.4,12.2,74,30.18,10.0,West,4.6,-,N/A,,Clear,270,2013-02-17 05:55:00
1:15 AM,21.2,12.2,68,30.18,10.0,West,4.6,-,N/A,,Clear,270,2013-02-17 06:15:00
1:35 AM,21.2,14.0,74,30.18,10.0,WNW,5.8,-,N/A,,Clear,300,2013-02-17 06:35:00
1:55 AM,21.2,12.2,68,30.18,10.0,NW,3.5,-,N/A,,Partly Cloudy,310,2013-02-17 06:55:00
2:15 AM,21.2,12.2,68,30.17,10.0,NNW,5.8,-,N/A,,Clear,340,2013-02-17 07:15:00
2:35 AM,21.2,12.2,68,30.18,10.0,West,4.6,-,N/A,,Clear,260,2013-02-17 07:35:00
3:15 AM,21.2,12.2,68,30.18,10.0,West,3.5,-,N/A,,Clear,260,2013-02-17 08:15:00
3:35 AM,19.4,12.2,74,30.18,10.0,West,4.6,-,N/A,,Clear,270,2013-02-17 08:35:00
3:55 AM,19.4,12.2,74,30.19,10.0,West,3.5,-,N/A,,Clear,280,2013-02-17 08:55:00
4:15 AM,19.4,12.2,74,30.19,10.0,WNW,4.6,-,N/A,,Clear,290,2013-02-17 09:15:00
4:35 AM,19.4,12.2,74,30.19,10.0,NW,4.6,-,N/A,,Clear,320,2013-02-17 09:35:00
4:55 AM,19.4,12.2,74,30.19,10.0,WNW,4.6,-,N/A,,Clear,300,2013-02-17 09:55:00
5:15 AM,21.2,12.2,68,30.20,10.0,NW,4.6,-,N/A,,Clear,310,2013-02-17 10:15:00
5:35 AM,19.4,12.2,74,30.20,10.0,WNW,4.6,-,N/A,,Clear,290,2013-02-17 10:35:00
5:55 AM,19.4,12.2,74,30.21,10.0,WNW,4.6,-,N/A,,Clear,300,2013-02-17 10:55:00
6:15 AM,19.4,12.2,74,30.21,10.0,NW,3.5,-,N/A,,Clear,320,2013-02-17 11:15:00
6:35 AM,19.4,12.2,74,30.22,10.0,NW,3.5,-,N/A,,Clear,320,2013-02-17 11:35:00
6:55 AM,19.4,12.2,74,30.22,10.0,NNW,3.5,-,N/A,,Clear,340,2013-02-17 11:55:00
7:15 AM,19.4,12.2,74,30.23,10.0,NW,3.5,-,N/A,,Clear,320,2013-02-17 12:15:00
7:35 AM,19.4,12.2,74,30.24,10.0,NW,3.5,-,N/A,,Clear,320,2013-02-17 12:35:00
7:55 AM,17.6,12.2,79,30.25,10.0,NW,3.5,-,N/A,,Clear,320,2013-02-17 12:55:00
8:15 AM,19.4,12.2,74,30.25,10.0,Calm,Calm,-,N/A,,Clear,0,2013-02-17 13:15:00
8:35 AM,21.2,15.8,80,30.26,10.0,Calm,Calm,-,N/A,,Clear,0,2013-02-17 13:35:00
8:55 AM,23.0,15.8,74,30.26,10.0,NNE,5.8,-,N/A,,Clear,20,2013-02-17 13:55:00
9:15 AM,21.2,14.0,74,30.27,10.0,NNE,5.8,-,N/A,,Clear,30,2013-02-17 14:15:00
9:35 AM,24.8,15.8,69,30.27,10.0,NNE,6.9,-,N/A,,Clear,30,2013-02-17 14:35:00
9:55 AM,24.8,14.0,64,30.27,10.0,NNE,4.6,-,N/A,,Clear,30,2013-02-17 14:55:00
10:15 AM,24.8,14.0,64,30.27,10.0,Calm,Calm,-,N/A,,Clear,0,2013-02-17 15:15:00
10:35 AM,26.6,15.8,64,30.28,10.0,Calm,Calm,-,N/A,,Clear,0,2013-02-17 15:35:00
10:55 AM,26.6,14.0,59,30.28,10.0,South,4.6,-,N/A,,Clear,190,2013-02-17 15:55:00
11:15 AM,28.4,15.8,59,30.28,10.0,Calm,Calm,-,N/A,,Clear,0,2013-02-17 16:15:00
11:35 AM,28.4,15.8,59,30.28,10.0,East,3.5,-,N/A,,Clear,90,2013-02-17 16:35:00
12:15 PM,30.2,17.6,60,30.27,10.0,SSW,3.5,-,N/A,,Clear,210,2013-02-17 17:15:00
12:35 PM,32.0,17.6,55,30.26,10.0,WSW,5.8,-,N/A,,Clear,250,2013-02-17 17:35:00
12:55 PM,33.8,17.6,52,30.26,10.0,SSW,5.8,-,N/A,,Clear,210,2013-02-17 17:55:00
1:15 PM,33.8,17.6,52,30.25,10.0,SW,5.8,-,N/A,,Clear,220,2013-02-17 18:15:00
1:35 PM,33.8,17.6,52,30.24,10.0,Calm,Calm,-,N/A,,Clear,0,2013-02-17 18:35:00
1:55 PM,35.6,19.4,52,30.23,10.0,SE,4.6,-,N/A,,Clear,140,2013-02-17 18:55:00
2:15 PM,35.6,17.6,48,30.23,10.0,Calm,Calm,-,N/A,,Clear,0,2013-02-17 19:15:00
2:35 PM,37.4,19.4,48,30.23,10.0,South,4.6,-,N/A,,Clear,180,2013-02-17 19:35:00
2:55 PM,37.4,17.6,45,30.22,10.0,WSW,5.8,-,N/A,,Clear,240,2013-02-17 19:55:00
3:15 PM,37.4,17.6,45,30.21,10.0,SW,8.1,-,N/A,,Clear,220,2013-02-17 20:15:00
4:15 PM,39.2,17.6,42,30.20,10.0,South,5.8,-,N/A,,Clear,170,2013-02-17 21:15:00
4:35 PM,37.4,15.8,41,30.19,10.0,SE,5.8,-,N/A,,Clear,140,2013-02-17 21:35:00
4:55 PM,39.2,17.6,42,30.19,10.0,SE,6.9,-,N/A,,Clear,130,2013-02-17 21:55:00
5:15 PM,39.2,17.6,42,30.18,10.0,South,4.6,-,N/A,,Clear,170,2013-02-17 22:15:00
5:35 PM,37.4,17.6,45,30.18,10.0,South,6.9,-,N/A,,Clear,170,2013-02-17 22:35:00
5:55 PM,37.4,17.6,45,30.18,10.0,SSE,4.6,-,N/A,,Clear,160,2013-02-17 22:55:00
6:15 PM,35.6,17.6,48,30.17,10.0,SSE,4.6,-,N/A,,Clear,150,2013-02-17 23:15:00
6:35 PM,33.8,17.6,52,30.17,10.0,SE,5.8,-,N/A,,Clear,130,2013-02-17 23:35:00
7:15 PM,33.8,17.6,52,30.16,10.0,ESE,4.6,-,N/A,,Scattered Clouds,110,2013-02-18 00:15:00
7:35 PM,30.2,17.6,60,30.15,10.0,ESE,4.6,-,N/A,,Clear,110,2013-02-18 00:35:00
7:55 PM,33.8,17.6,52,30.15,10.0,East,5.8,-,N/A,,Clear,100,2013-02-18 00:55:00
8:15 PM,30.2,17.6,60,30.15,10.0,ESE,5.8,-,N/A,,Clear,120,2013-02-18 01:15:00
8:35 PM,30.2,17.6,60,30.15,10.0,ESE,9.2,-,N/A,,Clear,120,2013-02-18 01:35:00
8:55 PM,30.2,17.6,60,30.15,10.0,ESE,8.1,-,N/A,,Clear,120,2013-02-18 01:55:00
9:15 PM,30.2,17.6,60,30.15,10.0,SE,8.1,-,N/A,,Clear,130,2013-02-18 02:15:00
9:35 PM,30.2,17.6,60,30.15,10.0,SE,9.2,-,N/A,,Clear,130,2013-02-18 02:35:00
9:55 PM,30.2,17.6,60,30.16,10.0,ESE,9.2,-,N/A,,Clear,120,2013-02-18 02:55:00
10:15 PM,30.2,17.6,60,30.15,10.0,ESE,9.2,-,N/A,,Clear,120,2013-02-18 03:15:00
10:35 PM,30.2,17.6,60,30.15,10.0,SE,9.2,-,N/A,,Clear,130,2013-02-18 03:35:00
10:55 PM,32.0,17.6,55,30.15,10.0,SE,10.4,-,N/A,,Clear,140,2013-02-18 03:55:00
11:15 PM,32.0,17.6,55,30.14,10.0,SE,10.4,-,N/A,,Clear,140,2013-02-18 04:15:00
11:35 PM,33.8,17.6,52,30.14,10.0,SE,9.2,-,N/A,,Clear,140,2013-02-18 04:35:00
11:55 PM,32.0,17.6,55,30.13,10.0,SE,11.5,-,N/A,,Clear,130,2013-02-18 04:55:00